Location: Schommer Observatory
(40.5200°N, 74.4500°W)
Time: 05:10:28
(UTC-04:00)

ISS - Pass Details

Date: 12 October 2017
Orbit: 401 x 408 km, 51.6° (Epoch: 19 October)

Event Time Altitude Azimuth Distance (km) Brightness Sun altitude
Rises 19:34:17 0° 309° (NW) 2,326 0.9 -14.5°
Reaches altitude 10° 19:36:24 10° 315° (NW) 1,465 -0.3 -15.0°
Maximum altitude 19:39:37 51° 33° (NNE) 519 -3.5 -15.6°
Enters shadow 19:40:27 39° 81° (E) 629 -3.4 -15.7°
